RH
18 23 27 26 24 24 23 23 21 20 21 21 22 23 24 27 26 24 27 31 28 27 29 29 29 29 30 31 34 34 35 36 37 36 37 38 38 38 37 37 38 38 39 41 41 40 40 38 38 38 36 33 30 30 32 37 41 43 44 42 40 44 49 51 54 58 62 64 60 53 48 44 46 50 47 41 39 39 40 39 35 33 33 32 31 32 35
22 25 27 26 24 25 25 24 22 21 21 22 21 23 24 24 24 22 25 29 28 26 27 28 28 29 30 31 33 34 35 35 36 36 38 40 39 37 36 36 37 38 37 36 36 37 38 37 36 37 35 34 32 30 30 33 37 41 43 42 41 42 45 48 51 54 56 57 55 52 52 51 51 49 43 40 38 37 37 35 33 33 32 30 31 33 36
25 25 26 26 25 26 26 25 25 23 22 23 23 23 25 25 25 24 25 29 29 27 26 27 29 30 31 32 33 34 35 35 35 35 36 38 38 38 38 37 38 38 35 34 33 34 35 34 36 37 35 34 34 32 32 33 34 37 41 42 42 43 46 50 53 55 56 56 58 57 53 49 47 45 41 39 38 36 35 33 33 33 32 31 33 36 39
26 26 25 26 25 26 27 26 27 26 25 25 26 27 28 27 27 27 29 29 28 27 28 30 32 31 31 31 32 33 34 34 33 34 34 36 38 39 39 38 38 37 36 36 35 34 34 34 36 37 37 36 35 34 34 34 35 38 41 45 50 52 55 62 67 66 60 57 61 60 51 44 44 44 42 39 38 36 34 33 35 36 35 36 38 41 44
25 25 25 27 27 28 29 28 28 29 29 29 28 30 31 30 30 31 31 28 27 28 30 31 32 32 31 31 30 30 32 32 32 34 35 37 38 38 38 38 39 38 37 36 34 34 35 35 35 36 37 38 36 34 35 36 39 41 43 49 52 52 53 60 67 67 63 62 66 61 50 46 47 46 43 41 39 37 35 36 38 39 40 43 46 49 52
24 25 25 27 30 31 32 33 30 29 32 32 31 31 32 33 33 32 32 30 29 30 30 30 31 31 30 30 30 29 30 31 33 35 37 38 39 39 39 39 37 36 36 34 33 32 33 35 36 36 37 37 37 36 37 40 43 45 47 49 49 50 53 55 57 60 64 69 68 61 54 52 50 45 42 41 38 37 37 39 41 45 47 50 51 53 55
28 28 25 26 31 35 37 37 32 31 33 35 35 34 33 33 34 35 35 33 32 31 29 29 31 32 31 31 32 31 30 32 34 37 38 39 40 41 41 39 37 34 32 31 31 31 31 34 35 36 37 38 39 40 42 45 48 52 53 52 55 61 59 53 55 66 74 75 70 63 60 57 50 44 41 39 38 38 39 41 43 48 52 55 56 56 60
29 29 27 28 32 36 37 37 34 34 35 36 37 37 36 36 37 35 34 34 33 32 32 32 34 36 36 36 35 33 32 34 36 38 39 40 41 42 41 39 37 34 31 30 31 30 30 31 31 32 33 36 39 43 47 51 57 61 61 62 67 71 64 60 67 76 77 74 70 67 65 58 50 45 42 38 38 40 42 44 47 52 55 60 62 63 68
32 32 31 31 31 32 35 37 36 35 34 34 37 38 38 38 38 37 35 35 34 34 35 35 36 37 39 39 37 35 36 38 38 39 41 42 42 42 41 39 38 36 34 33 33 31 30 31 30 29 30 34 42 49 51 53 58 61 62 67 75 79 79 80 82 83 81 75 70 69 66 57 50 46 42 39 40 44 47 51 54 58 60 63 64 64 66
35 37 36 33 31 32 36 38 37 34 33 34 36 38 39 38 38 38 38 37 36 36 36 36 35 36 39 41 41 39 39 40 40 41 43 43 42 42 42 42 41 39 37 36 34 33 31 31 31 30 32 36 44 48 48 49 55 59 63 73 79 80 83 85 83 85 84 74 67 67 64 55 49 47 43 42 44 48 52 55 58 61 62 63 64 64 62
38 41 40 36 35 37 39 39 36 32 33 33 33 36 42 41 39 39 39 38 37 36 36 37 37 39 42 45 44 42 41 41 42 44 46 44 44 44 43 43 43 40 39 37 34 33 31 30 31 33 34 37 42 46 50 54 60 64 71 79 80 74 75 78 79 80 78 69 65 67 63 54 51 49 47 47 48 51 54 57 60 63 64 68 71 71 66
45 45 43 39 38 39 39 38 36 34 32 31 29 36 45 44 41 41 41 41 41 38 36 37 39 41 44 46 44 43 42 44 46 48 48 46 45 46 46 45 44 42 41 39 34 32 31 31 31 33 35 38 41 45 50 54 60 66 72 74 72 69 70 73 75 75 72 67 66 65 60 55 53 53 52 52 52 53 55 58 62 66 67 70 72 72 68
46 45 44 41 42 43 39 37 36 33 32 35 37 42 46 44 42 43 42 43 44 41 39 40 40 41 43 44 44 45 46 48 48 47 47 46 46 47 46 45 43 39 38 35 33 32 32 30 31 33 36 39 41 41 43 44 49 59 66 65 64 67 70 70 73 73 68 63 63 61 58 56 55 56 57 54 53 56 59 63 67 68 69 71 72 71 66
46 48 46 43 44 45 41 37 36 33 34 43 47 45 45 44 45 46 43 42 43 42 42 43 43 43 42 42 44 45 45 46 46 45 46 47 45 45 44 41 39 38 37 36 34 33 32 31 31 33 35 38 41 41 40 39 43 52 61 63 62 63 65 67 72 74 68 62 62 60 57 56 57 59 58 56 58 62 65 68 69 68 69 73 74 69 61
53 52 50 46 48 48 43 40 41 39 41 48 49 46 46 46 45 45 43 41 41 42 44 45 44 45 45 45 46 46 44 43 44 43 45 46 45 44 44 42 41 40 39 38 37 35 34 34 34 34 36 39 41 42 40 40 44 50 56 60 58 57 63 72 79 77 69 62 62 60 58 59 61 62 62 63 67 69 69 69 67 66 68 71 68 60 52
58 56 56 55 55 52 46 43 44 43 44 48 48 46 46 45 44 44 44 43 43 44 45 46 46 47 48 48 48 48 45 44 44 44 47 48 46 45 44 43 43 40 38 38 37 37 37 38 38 39 39 40 41 43 42 42 44 47 52 56 56 58 69 81 84 77 68 63 64 63 63 66 66 65 68 71 74 76 73 69 66 65 65 64 58 50 47
59 59 60 60 56 51 46 45 46 45 44 46 47 47 46 45 46 48 48 49 50 49 47 48 48 48 49 49 48 49 49 48 48 49 50 50 49 46 45 44 42 39 39 39 39 39 39 40 41 42 43 44 46 50 51 50 50 52 55 57 58 63 75 82 80 75 71 70 70 69 67 67 65 65 69 72 74 74 71 67 65 62 58 54 49 45 44
58 59 60 59 56 54 51 49 47 46 47 48 48 47 46 46 49 50 51 54 56 55 52 50 50 49 49 50 50 52 54 53 52 52 51 50 49 47 43 40 37 40 44 43 40 39 40 42 45 46 46 47 51 58 66 71 71 68 65 64 64 69 76 78 76 75 74 74 73 72 69 69 69 70 71 70 68 67 62 58 56 53 51 48 45 42 42
58 61 62 60 57 57 56 53 50 49 49 50 51 51 51 52 53 53 55 56 56 55 53 52 52 51 49 49 51 53 55 55 54 54 53 51 49 44 39 35 34 38 43 43 42 42 42 43 44 44 46 48 52 60 70 78 81 79 74 72 73 73 71 72 75 75 75 74 72 72 72 74 74 72 69 65 60 56 52 48 46 45 44 43 42 40 39
62 64 65 59 54 53 55 55 54 53 51 51 52 53 53 55 55 55 55 56 56 55 53 53 53 52 50 51 53 55 54 54 54 53 51 48 43 38 33 31 31 33 37 40 42 42 41 40 42 44 48 52 55 59 63 68 76 81 77 73 73 71 68 72 76 76 75 73 72 73 75 74 70 66 62 56 51 47 43 43 44 44 43 43 42 41 40
65 64 62 58 55 54 55 57 58 56 54 53 53 54 54 55 57 56 56 57 57 57 56 56 55 53 51 51 54 55 55 53 51 50 47 43 38 35 34 34 34 34 35 37 39 40 39 41 44 46 49 52 54 55 58 61 69 76 77 76 76 75 74 77 78 76 74 73 72 72 71 66 61 57 53 47 43 41 41 44 46 45 44 43 42 42 41
61 61 59 58 59 60 60 60 61 59 57 56 55 55 54 54 55 56 56 57 57 58 58 59 58 56 55 54 54 54 53 50 48 45 41 37 35 35 37 38 38 38 39 39 39 41 43 45 46 47 49 50 49 50 56 62 67 73 78 81 82 80 79 79 78 75 72 69 68 67 64 59 54 50 45 42 44 46 48 49 48 45 43 42 42 42 43
58 61 60 59 62 64 64 63 61 60 59 58 56 56 55 54 54 54 55 56 58 59 59 58 56 55 54 53 51 48 46 45 43 39 36 35 34 34 35 36 36 39 43 43 42 45 48 48 48 49 51 52 54 58 66 71 72 76 82 84 82 79 78 76 74 70 66 63 64 63 61 55 49 46 45 47 51 52 50 48 46 43 43 43 43 43 44
67 69 67 63 62 63 61 58 57 55 54 53 53 53 54 54 53 54 55 54 55 56 56 53 50 48 47 46 44 43 42 42 40 37 36 37 36 33 32 33 34 39 44 45 44 47 51 53 52 53 55 60 65 68 71 72 70 72 76 76 72 71 69 66 64 62 62 63 64 63 60 55 48 44 46 49 51 51 48 46 44 44 46 48 47 47 46
72 75 72 64 60 59 57 54 54 53 51 50 50 51 52 53 52 54 56 57 57 56 54 51 48 44 41 40 39 39 39 39 39 37 36 37 36 35 36 37 39 42 45 47 47 50 53 54 54 55 56 60 62 62 64 66 66 64 61 58 58 61 62 62 63 64 65 66 65 62 60 56 50 46 45 46 48 48 47 47 47 47 47 47 48 49 49
71 73 71 65 62 61 60 58 58 56 54 52 52 53 55 55 54 54 55 56 56 54 52 49 45 42 38 35 34 35 37 39 40 38 37 37 37 37 39 41 44 47 49 50 52 54 55 56 56 55 55 56 57 58 60 63 62 58 54 51 53 58 61 62 64 67 69 69 67 65 63 59 54 50 48 46 45 45 46 50 53 52 49 47 50 54 53
66 66 66 66 66 64 62 60 59 55 53 52 52 51 51 50 49 49 48 47 46 43 41 39 37 35 33 32 32 33 36 39 40 41 40 39 39 39 41 43 47 50 51 52 55 58 60 60 60 58 56 57 57 58 58 58 57 56 54 53 53 56 59 62 65 69 71 72 71 69 66 61 57 54 51 48 45 45 48 52 55 55 53 51 55 58 57
62 61 60 62 63 62 59 56 54 51 49 49 47 46 44 42 41 39 37 35 33 30 28 28 28 28 29 31 31 33 36 38 40 42 42 41 42 45 47 49 52 52 52 52 55 57 59 60 59 57 57 57 56 56 56 57 56 55 54 53 52 55 60 66 70 72 73 75 74 71 67 62 58 55 53 51 51 52 53 53 54 55 56 56 57 58 58
62 61 58 56 55 54 51 49 48 47 46 44 43 41 38 35 32 31 29 27 26 25 24 24 24 25 25 26 27 28 30 34 38 41 43 44 46 50 55 60 60 58 56 57 59 59 58 57 56 55 54 52 51 52 53 55 55 54 53 54 57 61 65 70 74 75 75 75 74 70 66 62 59 57 56 57 58 57 56 55 57 59 60 59 57 56 59
53 52 51 49 48 46 45 44 43 41 39 36 34 32 29 27 25 25 24 23 23 24 23 22 22 22 21 21 22 22 23 26 30 35 40 41 42 48 58 62 61 61 63 63 62 59 57 54 52 49 47 46 48 50 51 51 51 52 56 59 61 62 64 68 71 71 69 68 67 67 66 65 63 60 60 59 60 59 58 58 61 64 63 60 57 58 62
43 41 40 39 39 39 38 37 35 33 30 27 25 24 22 22 22 22 22 22 23 23 23 22 22 21 21 20 19 19 20 21 22 27 33 38 40 48 56 59 60 65 68 64 58 54 51 48 47 46 45 45 48 49 47 44 43 46 54 58 57 55 57 60 61 60 61 62 63 65 68 69 65 62 61 61 61 62 61 62 65 66 64 62 61 63 66
39 37 35 35 35 33 32 31 29 27 26 25 24 24 24 24 23 23 23 23 23 23 23 22 20 20 19 18 17 17 18 18 18 21 28 35 39 44 48 52 54 57 57 52 49 47 44 45 50 53 51 49 48 46 43 43 44 47 51 54 56 58 58 57 56 58 61 63 62 62 64 63 60 59 60 61 63 64 64 65 67 68 66 65 67 69 71
36 36 34 33 31 30 29 28 27 27 27 27 27 28 28 27 27 26 25 24 23 21 20 19 18 17 16 15 15 15 15 16 19 22 25 29 32 34 37 40 41 42 42 42 40 39 39 43 49 53 53 54 52 49 50 56 62 62 59 58 61 63 61 58 58 60 61 61 59 57 56 55 56 59 62 63 65 68 68 68 70 69 68 69 72 75 75
37 37 35 33 32 31 29 28 28 27 27 27 27 27 26 26 26 25 24 23 21 19 18 17 17 16 15 15 15 15 14 15 18 22 25 28 31 33 36 38 38 38 39 39 37 39 42 45 48 52 57 60 57 54 55 61 64 63 58 57 59 63 64 64 64 63 61 60 60 57 54 54 58 62 65 66 70 75 77 76 73 70 69 71 76 78 77
40 37 36 34 33 33 31 30 29 28 27 26 26 25 24 24 23 23 23 22 22 20 20 19 18 17 16 16 16 15 15 16 19 23 26 29 33 36 38 38 36 36 37 39 41 45 48 51 53 57 61 61 59 55 53 52 52 53 55 57 59 62 62 60 58 59 62 65 66 63 61 62 65 67 70 74 79 83 82 79 74 71 72 75 78 79 78
39 37 36 34 33 31 30 29 28 27 26 26 26 25 25 24 23 23 24 24 25 24 22 20 19 18 17 16 16 15 14 14 18 24 27 31 37 39 38 38 40 41 43 45 48 50 53 57 61 62 62 62 62 59 52 48 47 52 56 58 56 54 53 51 49 51 57 61 62 63 65 68 70 73 76 80 83 83 80 76 74 76 78 79 79 78 77
39 37 35 34 32 31 29 28 27 26 26 26 26 27 27 27 26 26 27 27 28 27 25 23 22 19 18 17 18 17 15 15 19 24 28 33 40 43 45 51 58 60 59 60 63 64 67 69 68 66 64 62 60 55 52 51 51 51 52 53 51 49 50 51 50 52 56 60 62 64 64 65 67 71 75 78 80 82 82 81 82 83 84 83 80 78 76
36 35 34 34 34 33 32 31 30 30 29 29 28 29 29 29 29 29 30 30 30 29 28 26 24 21 20 20 21 21 21 23 25 26 27 31 36 40 47 58 65 67 69 73 73 69 66 64 63 62 61 58 54 53 53 53 51 48 48 49 50 51 53 55 57 60 64 66 66 65 64 63 66 70 76 80 83 85 87 87 86 86 86 85 82 80 76
38 38 38 38 37 36 35 34 33 32 32 31 31 32 32 32 32 32 32 32 32 32 31 29 27 26 27 28 29 31 32 32 32 32 33 36 38 40 45 54 59 61 67 74 73 66 61 61 61 60 58 55 53 53 52 49 47 47 48 49 51 55 58 61 64 66 68 68 68 68 68 69 72 75 78 80 81 83 84 85 85 85 84 83 82 79 75
40 40 40 39 38 38 37 35 35 34 34 33 33 33 33 33 34 34 35 37 37 36 35 32 31 34 37 38 38 39 41 42 43 44 43 47 53 55 54 57 61 62 61 62 62 60 61 61 60 58 55 53 51 50 50 50 52 53 53 55 56 59 61 61 62 64 66 67 69 70 70 70 72 73 73 74 74 75 76 78 79 80 80 80 78 76 72
41 41 41 41 40 39 39 37 37 36 35 34 34 34 35 37 39 39 40 42 43 44 43 41 40 43 46 45 44 44 46 49 51 48 42 47 61 66 60 58 61 61 57 53 53 55 57 57 54 52 51 50 50 53 55 57 58 58 57 58 58 58 56 56 58 60 63 64 66 67 66 66 65 64 63 63 64 66 67 69 70 72 74 74 73 70 68
44 45 44 42 40 39 40 40 38 36 34 34 36 38 40 41 43 43 44 46 48 50 51 50 49 50 50 49 48 48 48 50 53 48 41 46 59 66 63 61 62 60 57 55 54 52 50 49 46 46 49 52 55 58 59 60 59 57 56 55 54 52 51 51 52 54 55 57 58 59 59 58 58 57 57 56 57 58 61 63 66 68 69 69 67 65 64
46 45 44 42 40 40 41 41 40 39 39 39 41 42 44 46 47 48 48 49 50 50 51 54 57 59 60 59 57 55 52 53 55 53 49 53 61 66 66 68 66 60 56 53 49 45 44 46 48 52 57 59 59 59 58 56 52 47 44 43 42 42 43 45 46 46 46 47 48 50 52 53 54 55 55 55 56 57 59 60 62 63 64 63 61 59 58
45 46 45 44 43 42 43 43 43 44 45 45 46 47 49 53 56 56 53 52 52 53 57 60 63 64 64 64 64 65 66 67 67 65 64 66 68 66 64 62 58 53 49 48 46 46 50 55 58 60 60 57 54 53 50 45 39 35 33 33 33 33 35 39 41 41 40 40 41 42 44 47 47 48 50 51 53 54 55 57 59 59 59 59 58 56 53
46 49 51 52 51 49 49 49 48 47 47 47 48 49 52 56 60 60 59 57 57 58 61 66 67 67 66 66 68 73 75 73 70 66 62 60 57 54 50 48 47 47 48 51 53 56 59 60 59 58 55 51 49 47 42 36 32 31 32 33 32 32 34 36 37 37 36 34 35 35 37 38 40 42 44 46 46 46 47 49 52 55 57 58 59 57 54
53 57 59 58 56 55 55 54 53 51 49 49 51 53 54 56 57 59 61 61 61 62 66 72 75 75 75 72 70 69 68 65 61 58 56 54 52 51 51 52 54 57 59 60 61 60 58 57 55 54 51 47 45 43 40 37 35 36 37 37 36 35 34 34 34 33 31 29 28 29 30 32 34 37 39 41 42 43 43 45 47 50 54 57 58 56 52
59 61 61 61 60 59 59 57 56 54 53 53 54 55 56 57 58 59 61 63 63 64 67 71 73 74 73 70 67 65 64 62 60 59 59 58 58 58 59 60 62 62 61 59 57 55 53 53 52 52 51 48 45 44 44 43 42 41 41 40 38 35 32 30 29 30 30 28 26 25 25 27 31 34 36 38 40 41 42 45 46 47 49 52 54 52 49
59 60 60 61 62 62 61 59 57 56 56 55 55 55 56 57 58 59 60 61 61 61 64 66 68 70 70 69 67 65 64 62 60 59 58 57 57 57 57 58 58 57 55 53 52 51 50 50 50 49 49 48 47 47 48 47 46 44 43 41 38 35 32 29 27 27 27 26 25 23 22 23 27 31 33 35 37 39 39 41 42 43 44 47 48 47 45
58 58 57 56 57 59 60 58 56 55 54 54 53 54 55 56 56 57 57 57 58 58 59 60 61 63 63 62 60 59 57 55 54 54 54 54 55 56 55 56 55 54 52 50 49 48 47 46 46 45 45 45 45 46 46 46 45 44 43 41 38 35 32 29 27 26 25 25 25 24 22 22 23 26 29 32 35 37 38 39 40 42 43 44 44 43 42
58 58 56 53 52 54 54 52 50 50 50 49 48 48 50 51 51 51 51 52 53 53 52 53 53 54 54 53 53 52 51 51 51 51 51 52 53 53 54 54 54 53 51 49 48 46 44 42 41 42 42 42 42 42 42 42 43 43 43 41 39 35 32 31 30 29 27 27 27 26 24 23 22 23 26 28 31 33 37 39 40 41 41 41 41 42 42
55 56 54 51 50 50 48 45 43 42 42 42 41 42 43 44 45 45 45 46 47 48 47 47 48 48 49 48 48 47 47 47 47 47 48 48 49 50 51 52 53 53 52 50 47 44 42 40 39 38 38 38 38 37 38 39 41 42 43 43 40 37 36 37 36 33 31 30 28 27 26 26 25 25 25 26 27 30 33 35 37 38 38 37 37 39 40
52 51 50 49 49 48 45 41 38 37 36 36 37 38 37 37 39 39 37 37 39 41 42 42 42 42 42 43 44 44 44 44 44 43 43 43 43 44 45 47 49 50 50 48 45 44 42 41 40 38 37 36 36 37 38 40 42 42 43 42 41 39 41 43 42 37 34 32 29 27 26 26 26 27 27 26 27 28 30 31 32 34 36 36 34 33 33